Location: Byszew
(52.1813°N, 19.2693°E)
Time: 23:05:45
(UTC+00:00)

Cosmos 2322 Rocket - Pass Details

Date: 30 June 2021
Orbit: 833 x 850 km, 71.0° (Epoch: 26 July)

Event Time Altitude Azimuth Distance (km) Brightness Sun altitude
Rises 21:49:18 0° 311° (NW) 3,424 6.3 -13.7°
Reaches altitude 10° 21:53:55 10° 345° (NNW) 2,485 6.1 -13.8°
Maximum altitude 21:55:38 11° 3° (N) 2,393 5.8 -13.9°
Drops below altitude 10° 21:57:21 10° 20° (NNE) 2,482 5.6 -13.9°
Sets 22:01:57 0° 54° (NE) 3,412 5.7 -14.1°
